Riverside March, CA

11:58 PM PDT on May 23, 2018 (GMT -0700)
March Air Reserve Base

Weather History for KRIV - March, 2014

Change the Weather History Date:

Saturday, March 1, 2014

  Actual Average Record
Temperature  
Mean Temperature 52 °F -  
Max Temperature 55 °F 63 °F 82 °F (2009)
Min Temperature 49 °F 40 °F 30 °F (2018)
Degree Days  
Heating Degree Days 13    
Growing Degree Days 2 (Base 50)    
Moisture  
Dew Point 48 °F    
Average Humidity 89    
Maximum Humidity 94    
Minimum Humidity 62    
Precipitation  
Precipitation 0.43 in - - ()
Sea Level Pressure  
Sea Level Pressure 29.87 in    
Wind  
Wind Speed 7 mph (ESE)    
Max Wind Speed 20 mph    
Max Gust Speed 25 mph    
Visibility 10 miles    
Events Rain    
Averages and records for this station are not official NWS values.
T = Trace of Precipitation, MM = Missing Value Source: NWS Daily Summary

Daily Weather History Graph

Daily Weather History Graph

Search for Another Location

Airport or City:

Astronomy

Mar. 01, 2014 Rise Set
Actual Time 6:17 AM PST 5:45 PM PST
Civil Twilight 5:52 AM PST 6:10 PM PST
Nautical Twilight 5:23 AM PST 6:39 PM PST
Astronomical Twilight 4:54 AM PST 7:08 PM PST
Moon 6:16 AM PST (3/1) 6:33 PM PST (3/1)
Length of Visible Light 12h 18m
Length of Day
11h 28m
New Moon, 0% of the Moon is Illuminated
Mar 1
New Moon
Mar 8
First Quarter
Mar 16
Full
Mar 23
Last Quarter
Mar 30
New

Hourly Weather History & Observations

Time (PST) Temp. Dew Point Humidity Pressure Visibility Wind Dir Wind Speed Gust Speed Precip Events Conditions
12:11 AM 50.0 °F 48.2 °F 94% 29.79 in 9.0 mi SSE 5.8 mph - N/A Rain Light Rain
12:26 AM 50.0 °F 48.2 °F 94% 29.79 in 9.0 mi SSE 3.5 mph - N/A   Overcast
12:36 AM 50.0 °F 48.2 °F 94% 29.79 in 10.0 mi Calm Calm - N/A   Mostly Cloudy
12:52 AM 50.0 °F 48.2 °F 94% 29.79 in 10.0 mi East 2.3 mph - N/A   Light Drizzle
12:58 AM 50.7 °F 48.7 °F 93% 29.78 in 10.0 mi ESE 4.6 mph - 0.02 in   Light Drizzle
1:01 AM 50.0 °F 48.2 °F 94% 29.79 in 10.0 mi ESE 4.6 mph - N/A   Overcast
1:58 AM 50.4 °F 48.4 °F 93% 29.78 in 10.0 mi East 4.6 mph - 0.00 in   Mostly Cloudy
2:12 AM 50.0 °F 48.2 °F 94% 29.79 in 10.0 mi ENE 3.5 mph - N/A Rain Light Rain
2:58 AM 49.8 °F 48.2 °F 94% 29.78 in 5.0 mi SE 8.1 mph - 0.08 in Rain Light Rain
3:22 AM 50.0 °F 48.2 °F 94% 29.78 in 10.0 mi East 5.8 mph - N/A   Mostly Cloudy
3:58 AM 50.0 °F 48.4 °F 94% 29.79 in 10.0 mi ENE 3.5 mph - 0.01 in   Mostly Cloudy
4:01 AM 50.0 °F 48.2 °F 94% 29.79 in 10.0 mi ENE 3.5 mph - N/A Rain Light Rain
4:25 AM 50.0 °F 48.2 °F 94% 29.80 in 10.0 mi NW 4.6 mph - N/A   Mostly Cloudy
4:37 AM 50.0 °F 48.2 °F 94% 29.80 in 10.0 mi North 3.5 mph - N/A Rain Light Rain
4:58 AM 50.0 °F 48.4 °F 94% 29.80 in 10.0 mi NE 5.8 mph - 0.02 in Rain Light Rain
5:58 AM 50.2 °F 48.6 °F 94% 29.82 in 10.0 mi East 6.9 mph - 0.05 in Rain Light Rain
6:58 AM 50.0 °F 48.4 °F 94% 29.83 in 9.0 mi SE 5.8 mph - 0.06 in Rain Light Rain
7:18 AM 50.0 °F 48.2 °F 94% 29.83 in 10.0 mi ESE 8.1 mph - N/A   Mostly Cloudy
7:58 AM 51.4 °F 48.2 °F 89% 29.84 in 10.0 mi East 5.8 mph - 0.01 in   Mostly Cloudy
8:04 AM 51.8 °F 48.2 °F 88% 29.85 in 10.0 mi East 5.8 mph - N/A Rain Light Rain
8:15 AM 51.8 °F 48.2 °F 88% 29.85 in 7.0 mi ESE 4.6 mph - N/A   Mostly Cloudy
8:42 AM 51.8 °F 48.2 °F 88% 29.86 in 10.0 mi SE 9.2 mph - N/A Rain Light Rain
8:54 AM 51.8 °F 48.2 °F 88% 29.87 in 9.0 mi SE 6.9 mph - N/A   Overcast
8:58 AM 52.0 °F 48.7 °F 89% 29.87 in 10.0 mi SE 8.1 mph - 0.01 in   Overcast
9:02 AM 51.8 °F 48.2 °F 88% 29.87 in 10.0 mi SE 9.2 mph - N/A Rain Light Rain
9:29 AM 51.8 °F 48.2 °F 88% 29.87 in 10.0 mi East 5.8 mph - N/A   Mostly Cloudy
9:58 AM 52.7 °F 49.3 °F 88% 29.87 in 10.0 mi East 8.1 mph - 0.02 in   Overcast
10:58 AM 53.8 °F 48.7 °F 83% 29.87 in 10.0 mi ESE 8.1 mph - N/A   Mostly Cloudy
11:58 AM 55.0 °F 49.1 °F 80% 29.86 in 10.0 mi SE 12.7 mph - N/A   Overcast
12:09 PM 53.6 °F 50.0 °F 88% 29.86 in 10.0 mi SE 17.3 mph - N/A   Overcast
12:22 PM 53.6 °F 50.0 °F 88% 29.86 in 10.0 mi SSE 19.6 mph - N/A Rain Light Rain
12:26 PM 53.6 °F 50.0 °F 88% 29.86 in 5.0 mi SE 19.6 mph 25.3 mph N/A Rain Light Rain
12:36 PM 51.8 °F 50.0 °F 94% 29.86 in 9.0 mi SE 16.1 mph - N/A Rain Light Rain
12:40 PM 51.8 °F 50.0 °F 94% 29.86 in 5.0 mi SSE 13.8 mph - N/A Rain Light Rain
12:51 PM 51.8 °F 50.0 °F 94% 29.87 in 5.0 mi SSE 15.0 mph - N/A Rain Light Rain
12:58 PM 52.3 °F 49.6 °F 91% 29.86 in 9.0 mi SE 13.8 mph - 0.03 in Rain Light Rain
1:03 PM 51.8 °F 50.0 °F 94% 29.86 in 10.0 mi SE 12.7 mph - N/A Rain Light Rain
1:10 PM 51.8 °F 50.0 °F 94% 29.86 in 10.0 mi SE 12.7 mph - N/A   Overcast
1:41 PM 53.6 °F 50.0 °F 88% 29.85 in 10.0 mi ESE 8.1 mph - N/A Rain Light Rain
1:49 PM 53.6 °F 50.0 °F 88% 29.85 in 10.0 mi ESE 6.9 mph - N/A   Overcast
1:58 PM 54.3 °F 49.3 °F 83% 29.86 in 10.0 mi SE 8.1 mph - 0.02 in   Overcast
2:18 PM 55.4 °F 48.2 °F 77% 29.85 in 10.0 mi SE 9.2 mph - N/A   Mostly Cloudy
2:58 PM 55.9 °F 46.8 °F 71% 29.84 in 10.0 mi SE 12.7 mph - N/A   Mostly Cloudy
3:23 PM 55.4 °F 50.0 °F 82% 29.84 in 10.0 mi SE 15.0 mph - N/A Rain Light Rain
3:37 PM 53.6 °F 48.2 °F 82% 29.86 in 5.0 mi SSE 15.0 mph - N/A Rain Rain
3:50 PM 53.6 °F 41.0 °F 62% 29.85 in 10.0 mi SSE 9.2 mph - N/A Rain Light Rain
3:58 PM 53.6 °F 44.6 °F 72% 29.86 in 10.0 mi SSE 9.2 mph - 0.07 in   Mostly Cloudy
4:41 PM 53.6 °F 48.2 °F 82% 29.85 in 10.0 mi East 6.9 mph - N/A Rain Light Rain
4:58 PM 54.1 °F 47.7 °F 79% 29.85 in 10.0 mi ESE 6.9 mph - 0.00 in   Mostly Cloudy
5:58 PM 52.9 °F 47.7 °F 82% 29.87 in 10.0 mi SE 6.9 mph - N/A   Mostly Cloudy
6:54 PM 53.6 °F 48.2 °F 82% 29.90 in 10.0 mi West 6.9 mph - N/A Rain Light Rain
6:58 PM 52.7 °F 47.1 °F 81% 29.90 in 10.0 mi West 6.9 mph - 0.00 in Rain Light Rain
7:04 PM 50.0 °F 44.6 °F 82% 29.90 in 6.0 mi WSW 10.4 mph - N/A Rain Light Rain
7:41 PM 50.0 °F 46.4 °F 87% 29.93 in 10.0 mi North 5.8 mph - N/A   Overcast
7:58 PM 50.0 °F 45.5 °F 85% 29.93 in 10.0 mi ENE 3.5 mph - 0.03 in   Overcast
8:25 PM 50.0 °F 46.4 °F 87% 29.94 in 10.0 mi East 3.5 mph - N/A   Mostly Cloudy
8:58 PM 50.0 °F 47.5 °F 91% 29.94 in 10.0 mi ESE 5.8 mph - N/A   Overcast
9:43 PM 50.0 °F 48.2 °F 94% 29.95 in 10.0 mi ESE 6.9 mph - N/A   Overcast
9:51 PM 50.0 °F 48.2 °F 94% 29.95 in 10.0 mi ESE 9.2 mph - N/A   Overcast
9:58 PM 50.0 °F 47.5 °F 91% 29.95 in 10.0 mi SE 6.9 mph - N/A   Overcast
10:03 PM 50.0 °F 48.2 °F 94% 29.95 in 10.0 mi SE 8.1 mph - N/A   Overcast
10:23 PM 50.0 °F 48.2 °F 94% 29.95 in 10.0 mi SE 5.8 mph - N/A   Overcast
10:43 PM 50.0 °F 48.2 °F 94% 29.96 in 10.0 mi SSE 6.9 mph - N/A   Overcast
10:58 PM 49.8 °F 47.7 °F 92% 29.96 in 10.0 mi SE 5.8 mph - N/A   Overcast
11:18 PM 50.0 °F 48.2 °F 94% 29.97 in 10.0 mi SE 4.6 mph - N/A   Overcast
11:23 PM 50.0 °F 48.2 °F 94% 29.97 in 10.0 mi SSE 4.6 mph - N/A   Overcast
11:28 PM 50.0 °F 48.2 °F 94% 29.96 in 10.0 mi SE 4.6 mph - N/A   Overcast
11:38 PM 50.0 °F 48.2 °F 94% 29.96 in 10.0 mi ESE 5.8 mph - N/A   Overcast
11:43 PM 50.0 °F 48.2 °F 94% 29.97 in 10.0 mi ESE 4.6 mph - N/A   Overcast
11:53 PM 50.0 °F 48.2 °F 94% 29.97 in 10.0 mi East 4.6 mph - N/A   Overcast
11:58 PM 50.0 °F 48.0 °F 93% 29.96 in 10.0 mi ESE 6.9 mph - N/A   Overcast